Preview of NWS' New Version of Forecast
This preview is not operational and should not be used for support decisions.

Regional Weather Roundup (RWR)

Issued by National Weather Service (NWS)

                            
000
ASUS46 KSEW 221910
RWRWA 

WASHINGTON REGIONAL WEATHER ROUNDUP
NATIONAL WEATHER SERVICE SEATTLE WA
1200 PM PDT THU AUG 22 2019

NOTE:"FAIR" INDICATES FEW OR NO CLOUDS BELOW 12,000 FEET WITH NO 
SIGNIFICANT WEATHER AND/OR OBSTRUCTIONS TO VISIBILITY.

WAZ507-509-555>559-222000-
SEATTLE, TACOMA, EVERETT, AND VICINITY
  
CITY           SKY/WX    TMP DP  RH WIND       PRES   REMARKS
EVERETT        SUNNY     65  50  58 VRB3      30.12R                  
BOEING FIELD   CLOUDY    63  56  78 VRB3      30.11S                  
RENTON         CLOUDY    62  57  83 CALM      30.11S                  
SEATAC AIRPORT PTSUNNY   61  55  81 W5        30.12S                  
JBLM-MCCHORD   CLOUDY    61  55  82 N3        30.12R                  
PUYALLUP       CLOUDY    59  59 100 CALM      30.12S                  
BREMERTON      CLOUDY    64  56  75 CALM      30.12R                  
JBLM-FT LEWIS  CLOUDY    60  59  99 CALM      30.11S                  
TACOMA NARROWS CLOUDY    57  55  93 CALM      30.13R FOG              
$$
 
WAZ001-503-506-510-514-515-222000-
NORTH INTERIOR
  
CITY           SKY/WX    TMP DP  RH WIND       PRES   REMARKS
BELLINGHAM     CLOUDY    65  55  70 CALM      30.09S                  
FRIDAY HARBOR  SUNNY     67  51  56 SE5       30.11S                  
EASTSOUND      SUNNY     64  54  68 VRB7      30.10S                  
PORT ANGELES   SUNNY     63  52  67 E5        30.12R                  
EDIZ HOOK      FAIR      59  53  79 SE5       30.11S                  
PORT TOWNSEND  FAIR      66  52  59 VRB5G12   30.09F                  
NAS WHIDBEY    MOSUNNY   66  53  63 W7        30.14S                  
ARLINGTON      SUNNY     66  53  63 VRB3      30.10F                  
BURLINGTON     SUNNY     72  55  56 NW8       30.09S                  
$$
 
WAZ020-022-039-040-504-511-512-222000-
SOUTHWEST INTERIOR
  
CITY           SKY/WX    TMP DP  RH WIND       PRES   REMARKS
SHELTON        PTSUNNY   65  56  72 VRB5      30.09S                  
OLYMPIA        CLOUDY    62  55  77 N5        30.11S                  
CHEHALIS       CLOUDY    70  55  60 VRB5      30.11S                  
KELSO          PTSUNNY   65  51  60 CALM      30.12S                  
VANCOUVER      PTSUNNY   66  50  56 N6        30.10S                  
SCAPPOOSE, OR  CLOUDY    66  50  56 NW7       30.10R                  
PORTLAND, OR   PTSUNNY   67  49  52 NW7       30.11R                  
$$
 
WAZ021-516-517-222000-
WASHINGTON COAST
  
CITY           SKY/WX    TMP DP  RH WIND       PRES   REMARKS
FORKS          PTSUNNY   65  56  72 SW9G16    30.09S                  
HOQUIAM        CLOUDY    63  55  75 W8        30.12R                  
ASTORIA, OR    MOSUNNY   67  53  61 N8        30.11R                  
$$
 
WAZ019-023-024-040-567>569-222000-
CASCADE MOUNTAINS AND COLUMBIA GORGE
  
CITY           SKY/WX    TMP DP  RH WIND       PRES   REMARKS
STAMPEDE PASS  CLOUDY    53  50  89 VRB5      30.11S                  
TROUTDALE, OR  PTSUNNY   66  50  56 VRB5      30.11R                  
HOOD RIVER, OR CLEAR     68  50  52 W7        30.04S                  
THE DALLES, OR SUNNY     71  51  49 NW22      29.99F                  
$$

WAZ026-027-041>044-520-521-222000-
EAST SLOPES
  
CITY           SKY/WX    TMP DP  RH WIND       PRES   REMARKS
OMAK           SUNNY     80  45  28 N16G26    29.95S                  
WENATCHEE      SUNNY     75  39  27 NW7       29.94F                  
ELLENSBURG     SUNNY     76  47  35 NW20G25   29.97F                  
YAKIMA         SUNNY     78  43  28 E3        29.96F                  
SUNNYSIDE ARPT CLEAR     75  55  48 S3        29.96F                  
YAKIMA TC      FAIR      77  42  27 W6        29.95F                  
$$

WAZ028-034-035-222000-
COLUMBIA BASIN
  
CITY           SKY/WX    TMP DP  RH WIND       PRES   REMARKS
EPHRATA        SUNNY     79  44  28 W6        29.93F                  
MOSES LAKE     SUNNY     79  53  40 NW7       29.94F                  
PASCO          SUNNY     78  51  38 VRB6      29.95S                  
RICHLAND ARPT  CLEAR     81  53  37 SE3       29.94                   
HERMISTON, OR  SUNNY     77  52  41 NW10      29.96F                  
$$

WAZ036>038-222000-
NORTHEAST WASHINGTON
  
CITY           SKY/WX    TMP DP  RH WIND       PRES   REMARKS
SPOKANE GEIGER PTSUNNY   64  54  69 SW8       29.98S                  
SPOKANE FELTS  CLOUDY    66  56  70 S7        29.97S                  
FAIRCHILD AFB  CLOUDY    64  57  78 S5        29.98R                  
COEURDALENE,ID CLOUDY    63  58  83 S5        29.98S                  
DEER PARK      SUNNY     68  57  68 SE7       29.97R                  
$$

WAZ029>033-222000-
SOUTHEAST WASHINGTON
  
CITY           SKY/WX    TMP DP  RH WIND       PRES   REMARKS
PULLMAN        CLOUDY    68  53  58 W14G22    30.00S                  
LEWISTON, ID   PTSUNNY   76  56  49 CALM      29.92F                  
WALLA WALLA    SUNNY     76  49  38 S17G23    29.97F                  
PENDLETON, OR  SUNNY     75  48  38 NW16      29.98S                  
$$